FW8372 Weather Reports


time (UTC)temp
F
wind
direction
speed
knots
gust
knots
rain 1hr
in
rain 24hr
in
rain mn
in
humidity
%
barometer
mb
20260507063150 53 103 0.9 2.6 0.00 0.00 0.00 88 1020.7
20260507062647 53 92 2.6 5.2 0.00 0.00 0.00 88 1020.8
20260507062144 53 120 1.7 2.6 0.00 0.00 0.00 88 1020.7
20260507061642 52 109 0.9 1.7 0.00 0.00 0.00 89 1020.8
20260507061140 52 104 0.0 1.7 0.00 0.00 0.00 88 1020.9
20260507060638 52 116 1.7 1.7 0.00 0.00 0.00 88 1020.5
20260507060134 53 116 1.7 2.6 0.00 0.00 0.00 88 1020.8
20260507055629 53 102 0.0 2.6 0.00 0.00 0.00 88 1020.6
20260507055126 53 124 1.7 4.3 0.00 0.00 0.00 87 1020.8
20260507054622 53 136 0.9 4.3 0.00 0.00 0.00 87 1020.8
20260507054119 53 156 2.6 4.3 0.00 0.00 0.00 87 1020.8
20260507053617 53 106 1.7 1.7 0.00 0.00 0.00 86 1020.7
20260507053115 53 89 0.9 2.6 0.00 0.00 0.00 86 1020.9
20260507052613 53 97 3.5 5.2 0.00 0.00 0.00 85 1020.9
20260507052109 54 121 1.7 6.1 0.00 0.00 0.00 85 1020.9
20260507051607 54 133 0.9 4.3 0.00 0.00 0.00 85 1020.6
20260507051103 54 128 0.9 1.7 0.00 0.00 0.00 85 1020.8
20260507050600 54 122 2.6 7.8 0.00 0.00 0.00 84 1020.5
20260507050056 54 164 1.7 5.2 0.00 0.00 0.00 84 1020.7
20260507045553 54 104 1.7 6.1 0.00 0.00 0.00 84 1020.9
20260507045051 54 130 1.7 4.3 0.00 0.00 0.00 83 1020.8
20260507044547 54 109 1.7 6.1 0.00 0.00 0.00 83 1020.7
20260507044044 54 181 2.6 4.3 0.00 0.00 0.00 83 1021.0
20260507043539 54 61 5.2 7.0 0.00 0.00 0.00 83 1020.9
20260507043037 54 152 1.7 2.6 0.00 0.00 0.00 83 1020.9
20260507042533 54 91 4.3 5.2 0.00 0.00 0.00 82 1020.9
20260507042029 55 90 0.9 4.3 0.00 0.00 0.00 82 1021.0
20260507041526 55 125 2.6 5.2 0.00 0.00 0.00 82 1020.8
20260507041023 55 143 0.9 4.3 0.00 0.00 0.00 82 1020.7
20260507040519 55 118 2.6 4.3 0.00 0.00 0.00 81 1020.7
20260507040015 55 76 0.9 5.2 0.00 0.00 0.00 81 1020.7
20260507035511 55 89 2.6 4.3 0.00 0.00 0.00 81 1020.6
20260507035008 55 81 0.9 1.7 0.00 0.00 0.00 80 1020.7
20260507034505 55 75 4.3 6.1 0.00 0.00 0.00 80 1020.5
20260507034003 55 113 1.7 4.3 0.00 0.00 0.00 79 1020.6
20260507033501 56 92 0.9 2.6 0.00 0.00 0.00 79 1020.3
20260507032957 56 129 0.0 1.7 0.00 0.00 0.00 79 1020.5
20260507032454 56 112 0.9 1.7 0.00 0.00 0.00 79 1020.4
20260507031950 56 144 0.0 2.6 0.00 0.00 0.00 79 1020.6
20260507031447 56 153 2.6 2.6 0.00 0.00 0.00 79 1020.7
20260507030944 56 171 2.6 2.6 0.00 0.00 0.00 78 1020.4
20260507030441 56 152 0.9 4.3 0.00 0.00 0.00 78 1020.4
20260507025938 56 157 0.9 2.6 0.00 0.00 0.00 78 1020.4
20260507025435 56 150 2.6 2.6 0.00 0.00 0.00 79 1020.3
20260507024933 56 150 1.7 1.7 0.00 0.00 0.00 80 1020.3
20260507024430 56 175 0.9 4.3 0.00 0.00 0.00 80 1020.5
20260507023926 56 157 2.6 2.6 0.00 0.00 0.00 78 1020.3
20260507023423 56 147 0.9 1.7 0.00 0.00 0.00 78 1020.2
20260507022920 56 128 1.7 2.6 0.00 0.00 0.00 78 1020.1
20260507022417 56 165 2.6 4.3 0.00 0.00 0.00 77 1020.3
20260507021913 56 117 2.6 4.3 0.00 0.00 0.00 77 1020.1
20260507021408 56 126 1.7 4.3 0.00 0.00 0.00 77 1020.1
20260507020906 56 120 0.9 1.7 0.00 0.00 0.00 77 1020.1
20260507020402 56 122 1.7 5.2 0.00 0.00 0.00 77 1020.3
20260507015859 56 116 1.7 4.3 0.00 0.00 0.00 77 1020.3
20260507015358 56 105 5.2 6.1 0.00 0.00 0.00 77 1020.1
20260507014854 56 124 2.6 4.3 0.00 0.00 0.00 77 1020.0
20260507014350 56 123 2.6 6.1 0.00 0.00 0.00 77 1020.2
20260507013847 56 102 3.5 5.2 0.00 0.00 0.00 77 1019.9
20260507013344 56 166 2.6 4.3 0.00 0.00 0.00 77 1020.1
20260507012842 56 132 0.0 5.2 0.00 0.00 0.00 77 1020.2
20260507012337 56 78 1.7 5.2 0.00 0.00 0.00 77 1020.3
20260507011835 56 142 1.7 4.3 0.00 0.00 0.00 77 1020.3
20260507011332 56 106 0.0 5.2 0.00 0.00 0.00 77 1020.0
20260507010831 56 106 0.9 2.6 0.00 0.00 0.00 77 1020.2
20260507010327 56 103 0.9 6.1 0.00 0.00 0.00 77 1020.2
20260507005825 56 161 1.7 8.7 0.00 0.00 0.00 77 1020.4
20260507005321 57 105 4.3 5.2 0.00 0.00 0.00 76 1020.3
20260507004813 56 102 0.0 5.2 0.00 0.00 0.00 77 1020.2
20260507004310 56 108 4.3 7.0 0.00 0.00 0.00 77 1020.2
20260507003807 56 144 3.5 7.0 0.00 0.00 0.00 77 1020.3
20260507003302 56 137 2.6 4.3 0.00 0.00 0.00 76 1020.4
20260507002757 56 122 2.6 5.2 0.00 0.00 0.00 76 1020.2
20260507002254 56 117 0.9 7.0 0.00 0.00 0.00 77 1020.2
20260507001751 56 100 3.5 6.1 0.00 0.00 0.00 76 1020.2
20260507001248 57 111 6.1 7.8 0.00 0.00 0.00 76 1020.4
20260507000744 57 112 2.6 5.2 0.00 0.00 0.00 76 1020.2
20260507000240 57 129 4.3 7.0 0.00 0.00 0.00 76 1020.1
20260506235737 57 97 3.5 7.0 0.00 0.00 0.00 76 1020.1
20260506235232 56 147 0.9 5.2 0.00 0.00 0.00 76 1020.3
20260506234730 56 200 6.1 8.7 0.00 0.00 0.00 76 1020.4
20260506234227 56 86 0.9 4.3 0.00 0.00 0.00 76 1020.6
20260506233724 56 159 1.7 7.0 0.00 0.00 0.00 76 1020.6
20260506233220 56 136 2.6 7.0 0.00 0.00 0.00 76 1020.1
20260506232717 56 130 2.6 7.0 0.00 0.00 0.00 76 1020.3
20260506232212 56 145 1.7 2.6 0.00 0.00 0.00 76 1020.3
20260506231710 56 137 0.9 5.2 0.00 0.00 0.00 77 1020.4
20260506231208 56 199 1.7 6.1 0.00 0.00 0.00 76 1020.3
20260506230704 56 93 4.3 5.2 0.00 0.00 0.00 76 1020.3
20260506230201 56 101 4.3 8.7 0.00 0.00 0.00 76 1020.3
20260506225658 56 156 2.6 4.3 0.00 0.00 0.00 75 1020.5
20260506225155 56 153 3.5 6.1 0.00 0.00 0.00 75 1020.3
20260506224651 56 91 2.6 6.1 0.00 0.00 0.00 75 1020.6
20260506224148 56 129 3.5 6.1 0.00 0.00 0.00 76 1020.3
20260506223645 56 180 5.2 7.8 0.00 0.00 0.00 75 1020.5
20260506223140 56 191 3.5 6.1 0.00 0.00 0.00 75 1020.3
20260506222637 56 160 2.6 6.1 0.00 0.00 0.00 74 1020.4
20260506222133 57 116 5.2 7.0 0.00 0.00 0.00 74 1020.4
20260506221631 57 111 2.6 6.1 0.00 0.00 0.00 73 1020.5
20260506221129 57 147 1.7 5.2 0.00 0.00 0.00 73 1020.7
20260506220626 57 135 0.9 1.7 0.00 0.00 0.00 72 1020.4
20260506220121 57 165 3.5 6.1 0.00 0.00 0.00 73 1020.5
20260506215618 57 125 6.1 7.0 0.00 0.00 0.00 72 1020.7
20260506215113 57 136 2.6 5.2 0.00 0.00 0.00 72 1020.7
20260506214610 57 145 2.6 6.1 0.00 0.00 0.00 71 1020.7
20260506214108 57 115 4.3 7.0 0.00 0.00 0.00 71 1020.7
20260506213606 57 141 0.9 5.2 0.00 0.00 0.00 72 1020.5
20260506213103 57 152 1.7 4.3 0.00 0.00 0.00 72 1020.4
20260506212600 57 154 2.6 5.2 0.00 0.00 0.00 71 1020.6
20260506212054 57 194 2.6 5.2 0.00 0.00 0.00 72 1020.8
20260506211551 57 109 0.9 4.3 0.00 0.00 0.00 71 1020.6
20260506211048 57 140 4.3 7.0 0.00 0.00 0.00 71 1020.6
20260506210544 57 166 2.6 4.3 0.00 0.00 0.00 71 1020.8
20260506210041 57 139 6.1 7.0 0.00 0.00 0.00 71 1020.7
20260506205538 57 186 3.5 6.1 0.00 0.00 0.00 71 1020.4
20260506205033 57 127 2.6 7.8 0.00 0.00 0.00 71 1020.6
20260506204531 57 152 2.6 7.0 0.00 0.00 0.00 71 1021.0
20260506204028 57 170 2.6 5.2 0.00 0.00 0.00 71 1020.7
20260506203526 57 205 6.1 7.8 0.00 0.00 0.00 71 1020.3
20260506203022 57 86 2.6 4.3 0.00 0.00 0.00 71 1020.3
20260506202520 57 137 2.6 7.0 0.00 0.00 0.00 72 1020.5
20260506202016 57 118 2.6 7.8 0.00 0.00 0.00 72 1020.6
20260506201514 57 173 1.7 4.3 0.00 0.00 0.00 72 1020.4
20260506201010 56 82 0.9 2.6 0.00 0.00 0.00 72 1020.5
20260506200506 56 97 6.1 7.8 0.00 0.00 0.00 73 1020.4
20260506200004 57 158 6.1 7.8 0.00 0.00 0.00 74 1020.4
20260506195501 57 121 3.5 4.3 0.00 0.00 0.00 74 1020.3
20260506194956 56 140 3.5 7.0 0.00 0.00 0.00 75 1020.4
20260506194454 56 135 1.7 6.1 0.00 0.00 0.00 76 1020.3
20260506193950 56 109 2.6 4.3 0.00 0.00 0.00 76 1020.4
20260506193448 55 123 0.9 1.7 0.00 0.00 0.00 76 1020.4
20260506192938 55 174 2.6 7.0 0.00 0.00 0.00 77 1020.3
20260506192435 56 183 3.5 7.0 0.00 0.00 0.00 77 1020.2
20260506191932 55 134 2.6 4.3 0.00 0.00 0.00 77 1020.1
20260506191429 55 169 2.6 5.2 0.00 0.00 0.00 77 1020.3
20260506190926 55 117 4.3 7.8 0.00 0.00 0.00 79 1020.3
20260506190422 55 109 0.9 7.0 0.00 0.00 0.00 79 1020.3
20260506185919 55 128 1.7 7.0 0.00 0.00 0.00 78 1020.0
20260506185416 55 143 3.5 5.2 0.00 0.00 0.00 78 1020.3
20260506184913 55 79 2.6 5.2 0.00 0.00 0.00 79 1020.2
20260506184410 55 97 2.6 4.3 0.00 0.00 0.00 78 1020.2
20260506183907 55 194 3.5 6.1 0.00 0.00 0.00 80 1020.3
20260506183402 55 109 0.9 5.2 0.00 0.00 0.00 80 1020.3
20260506182900 54 94 4.3 5.2 0.00 0.00 0.00 81 1020.1
20260506182357 54 76 3.5 5.2 0.00 0.00 0.00 82 1020.2
20260506181854 54 173 2.6 7.0 0.00 0.00 0.00 83 1020.4
20260506181352 54 137 1.7 2.6 0.00 0.00 0.00 83 1020.3
20260506180849 54 120 0.9 5.2 0.00 0.00 0.00 85 1020.4
20260506180345 54 115 5.2 6.1 0.00 0.00 0.00 85 1020.2
20260506175841 54 153 3.5 6.1 0.00 0.00 0.00 85 1020.1
20260506175338 54 184 2.6 5.2 0.00 0.00 0.00 85 1020.0
20260506174835 54 138 0.9 5.2 0.00 0.00 0.00 85 1019.7
20260506174333 54 127 0.0 7.0 0.00 0.00 0.00 87 1019.8
20260506173830 54 86 3.5 6.1 0.00 0.00 0.00 86 1019.9
20260506173327 54 145 0.9 4.3 0.00 0.00 0.00 86 1019.8
20260506172824 53 99 3.5 5.2 0.00 0.00 0.00 88 1019.8
20260506172321 53 124 2.6 7.0 0.00 0.00 0.00 89 1020.0
20260506171818 53 115 2.6 5.2 0.00 0.00 0.00 90 1020.1
20260506171315 53 89 0.9 5.2 0.00 0.00 0.00 90 1020.0
20260506170813 53 107 4.3 7.8 0.00 0.00 0.00 90 1020.0
20260506170308 53 116 6.1 7.8 0.00 0.00 0.00 89 1020.0
20260506165808 53 103 6.1 8.7 0.00 0.00 0.00 87 1019.9
20260506165306 53 120 4.3 8.7 0.00 0.00 0.00 87 1020.2
20260506164801 53 133 3.5 6.1 0.00 0.00 0.00 86 1019.9
20260506164258 53 95 2.6 5.2 0.00 0.00 0.00 87 1019.8
20260506163755 53 63 1.7 4.3 0.00 0.00 0.00 88 1019.8
20260506163250 53 121 2.6 5.2 0.00 0.00 0.00 88 1020.2
20260506162746 53 134 2.6 6.1 0.00 0.00 0.00 89 1019.9
20260506162244 53 121 1.7 6.1 0.00 0.00 0.00 89 1019.9
20260506161741 53 140 2.6 7.0 0.00 0.00 0.00 89 1019.9
20260506161238 53 104 0.9 7.0 0.00 0.00 0.00 90 1019.4
20260506160736 52 125 3.5 6.1 0.00 0.00 0.00 90 1019.4
20260506160232 52 93 2.6 5.2 0.00 0.00 0.00 91 1019.4
20260506155731 52 111 3.5 6.1 0.00 0.00 0.00 92 1019.3
20260506155227 52 74 5.2 7.0 0.00 0.00 0.00 92 1019.4
20260506153335 52 97 3.5 5.2 0.00 0.00 0.00 94 1019.5
20260506152832 51 149 2.6 6.1 0.00 0.00 0.00 95 1019.8
20260506152329 51 127 2.6 5.2 0.00 0.00 0.00 95 1019.7
20260506151828 51 103 3.5 5.2 0.00 0.00 0.00 95 1019.7
20260506151324 52 98 0.9 4.3 0.00 0.00 0.00 95 1019.6
20260506150821 51 114 0.9 0.9 0.00 0.00 0.00 96 1019.7
20260506150318 52 100 1.7 5.2 0.00 0.00 0.00 95 1019.4
20260506145815 51 89 0.9 4.3 0.00 0.00 0.00 95 1019.3
20260506145311 52 97 3.5 7.0 0.00 0.00 0.00 95 1019.0
20260506144809 52 119 1.7 6.1 0.00 0.00 0.00 95 1019.3
20260506144305 51 131 1.7 6.1 0.00 0.00 0.00 95 1019.5
20260506143803 51 121 2.6 5.2 0.00 0.00 0.00 95 1019.3
20260506143300 51 125 4.3 7.0 0.00 0.00 0.00 95 1019.4
20260506142758 51 119 0.9 4.3 0.00 0.00 0.00 95 1019.5
20260506142256 51 153 4.3 5.2 0.00 0.00 0.00 94 1019.5
20260506141754 51 124 1.7 2.6 0.00 0.00 0.00 94 1019.4
20260506141252 51 124 0.9 4.3 0.00 0.00 0.00 94 1019.4
20260506140749 51 140 0.9 1.7 0.00 0.00 0.00 94 1019.4
20260506140246 51 155 2.6 2.6 0.00 0.00 0.00 94 1019.4
20260506135743 51 105 1.7 2.6 0.00 0.00 0.00 94 1019.2
20260506135239 51 90 2.6 4.3 0.00 0.00 0.00 94 1019.1
20260506134736 51 120 2.6 4.3 0.00 0.00 0.00 93 1019.2
20260506134233 51 149 2.6 2.6 0.00 0.00 0.00 93 1019.3
20260506133730 52 163 3.5 4.3 0.00 0.00 0.00 92 1019.1
20260506133226 52 148 1.7 2.6 0.00 0.00 0.00 92 1019.4
20260506132723 52 92 1.7 5.2 0.00 0.00 0.00 91 1018.9
20260506132221 52 167 2.6 2.6 0.00 0.00 0.00 91 1019.3
20260506131719 52 174 2.6 5.2 0.00 0.00 0.00 91 1019.0
20260506131214 52 149 1.7 5.2 0.00 0.00 0.00 91 1019.1
20260506130711 52 144 1.7 4.3 0.00 0.00 0.00 91 1018.9
20260506130208 52 96 0.9 1.7 0.00 0.00 0.00 91 1019.2
20260506125706 52 161 0.9 4.3 0.00 0.00 0.00 91 1018.8
20260506125204 52 118 1.7 4.3 0.00 0.00 0.00 91 1018.3
20260506124702 52 126 1.7 4.3 0.00 0.00 0.00 90 1018.5
20260506124200 52 125 1.7 5.2 0.00 0.00 0.00 90 1018.8
20260506123657 52 196 1.7 2.6 0.00 0.00 0.00 90 1018.5
20260506123155 52 111 2.6 6.1 0.00 0.00 0.00 90 1018.8
20260506122652 53 168 1.7 4.3 0.00 0.00 0.00 90 1018.4
20260506122149 52 129 1.7 5.2 0.00 0.00 0.00 90 1018.3
20260506121647 52 109 1.7 4.3 0.00 0.00 0.00 90 1018.4
20260506121143 52 129 0.9 4.3 0.00 0.00 0.00 90 1018.2
20260506120641 52 119 3.5 4.3 0.00 0.00 0.00 90 1018.3
20260506120138 52 107 2.6 7.0 0.00 0.00 0.00 90 1018.3
20260506115637 52 115 2.6 5.2 0.00 0.00 0.00 89 1018.3
20260506115134 52 142 2.6 2.6 0.00 0.00 0.00 89 1018.5
20260506114631 52 165 0.9 4.3 0.00 0.00 0.00 89 1018.3
20260506114129 52 159 2.6 7.0 0.00 0.00 0.00 90 1018.2
20260506113628 52 147 3.5 7.0 0.00 0.00 0.00 89 1018.1
20260506113124 52 121 0.9 4.3 0.00 0.00 0.00 89 1017.9
20260506112620 52 104 0.9 2.6 0.00 0.00 0.00 89 1017.9
20260506112118 52 130 1.7 4.3 0.00 0.00 0.00 90 1017.9
20260506111616 52 88 3.5 5.2 0.00 0.00 0.00 90 1017.9
20260506111113 52 64 0.9 4.3 0.00 0.00 0.00 90 1017.9
20260506110610 52 105 0.9 1.7 0.00 0.00 0.00 90 1017.8
20260506110108 52 88 0.9 5.2 0.00 0.00 0.00 90 1017.9
20260506105604 52 119 0.9 2.6 0.00 0.00 0.00 90 1017.8
20260506105101 52 70 1.7 5.2 0.00 0.00 0.00 90 1017.8
20260506104559 52 100 2.6 5.2 0.00 0.00 0.00 90 1017.6
20260506104057 52 127 2.6 5.2 0.00 0.00 0.00 90 1017.8
20260506103554 52 161 1.7 2.6 0.00 0.00 0.00 90 1017.6
20260506103050 52 101 1.7 4.3 0.00 0.00 0.00 90 1017.9
20260506102549 52 105 3.5 6.1 0.00 0.00 0.00 90 1017.7
20260506102046 52 122 3.5 6.1 0.00 0.00 0.00 90 1017.6
20260506101542 52 100 2.6 4.3 0.00 0.00 0.00 89 1017.4
20260506101039 52 137 2.6 6.1 0.00 0.00 0.00 89 1017.7
20260506100538 52 163 4.3 7.0 0.00 0.00 0.00 89 1017.9
20260506100036 52 142 6.1 8.7 0.00 0.00 0.00 89 1017.6
20260506095534 52 159 4.3 6.1 0.00 0.00 0.00 89 1017.8
20260506095030 53 151 4.3 7.0 0.00 0.00 0.00 89 1017.5
20260506094528 53 102 3.5 5.2 0.00 0.00 0.00 88 1017.6
20260506094026 53 117 2.6 5.2 0.00 0.00 0.00 88 1017.2
20260506093524 53 121 2.6 4.3 0.00 0.00 0.00 88 1017.2
20260506093021 53 135 1.7 6.1 0.00 0.00 0.00 89 1017.1
20260506092519 52 157 2.6 6.1 0.00 0.00 0.00 89 1017.4
20260506092015 52 148 1.7 5.2 0.00 0.00 0.00 88 1017.4
20260506091514 53 83 2.6 5.2 0.00 0.00 0.00 88 1017.1
20260506091010 53 54 4.3 5.2 0.00 0.00 0.00 88 1017.2
20260506090508 53 152 2.6 6.1 0.00 0.00 0.00 88 1017.2
20260506090004 53 172 3.5 6.1 0.00 0.00 0.00 87 1017.1
20260506085502 53 136 1.7 2.6 0.00 0.00 0.00 87 1017.1
20260506084958 53 165 1.7 2.6 0.00 0.00 0.00 87 1017.0
20260506084454 53 133 2.6 5.2 0.00 0.00 0.00 87 1017.1
20260506083950 53 99 2.6 4.3 0.00 0.00 0.00 86 1017.0
20260506083448 54 132 1.7 6.1 0.00 0.00 0.00 86 1017.0
20260506082945 54 126 1.7 4.3 0.00 0.00 0.00 86 1016.9
20260506082442 54 126 3.5 5.2 0.00 0.00 0.00 86 1016.7
20260506081938 54 77 4.3 6.1 0.00 0.00 0.00 86 1016.7
20260506081436 54 96 2.6 4.3 0.00 0.00 0.00 86 1016.6
20260506080933 54 96 2.6 7.8 0.00 0.00 0.00 86 1016.6
20260506080430 54 109 3.5 5.2 0.00 0.00 0.00 86 1016.6
20260506073414 55 105 2.6 5.2 0.00 0.00 0.00 85 1016.4
20260506072911 55 93 0.9 6.1 0.00 0.00 0.00 84 1016.5
20260506072409 55 128 2.6 7.0 0.00 0.00 0.00 84 1016.1
20260506071906 55 87 2.6 6.1 0.00 0.00 0.00 84 1016.5
20260506071404 55 118 0.9 7.0 0.00 0.00 0.00 84 1016.4
20260506070901 55 86 2.6 5.2 0.00 0.00 0.00 83 1016.2
20260506070357 55 88 3.5 6.1 0.00 0.00 0.00 83 1016.6